Dobrodošli na spletni strani vremenske postaje Senovo. Vse informacije so informativnega značaja, saj vremenska postaja ni del državne mreže meteoroloških postaj. AKTUALNIH OBVESTIL NI.


Posebna pozornost v zvezi z vremenskimi dogajanji ni potrebna.    Posebna pozornost v zvezi z vremenskimi dogajanji ni potrebna.

Pogled proti Armezu več informacij Pogled proti Armezu


Lisca več informacij Lisca


Radar strel več informacij blitzortung!


Radar padavin več informacij rain snow radar


Obiščite še:

Template documentation
and downloads

And another site



Weather Underground, zgodovina - Tekstovno

Dnevni povzetek za Januar 18, 2018 Enote:  Angleško    Metrično   Obe
« Predhodni Dan
Naslednji Dan »
Dnevni Tedenski Mesečni Letni Po meri
  Višja: Nižja: Povprečje:
Temperatura: TemperatureC °F -5.0 °F 1.4 °F
Točka rosišča: DewpointC °F -24.2 °F -7.1 °F
Vlažnost: Humidity % 8 % 60 %
Hitrost vetra: WindSpeedKMH mph 0.0 mph 2.8 mph
Sunki vetra: WindSpeedGustKMH mph - -
Veter:- - WSW
Zračni tlak: PressurehPa in 1003.9 in -
Padavine: 0.0 in    
Historical Graphs
 
 
Tabelarni podarki za Januar 18, 2018
Čas Temperatura Točka rosišča Zračni tlak Veter Hitrost vetra Sunki vetra Vlažnost Intenziteta padavin (urna)
TemperatureC °F DewpointC °F PressurehPa in Calm     Humidity % HourlyPrecipMM in
00:01 -2.4 °F -8.3 °F 1008.0 in WNW 1.8 mph 5.5 mph 64 % 0.0 in
00:07 -2.4 °F -8.3 °F 1008.0 in WNW 2.6 mph 5.5 mph 64 % 0.0 in
00:12 -2.5 °F -8.2 °F 1009.0 in West 2.1 mph 5.5 mph 65 % 0.0 in
00:17 -2.5 °F -8.2 °F 1009.0 in NNW 1.6 mph 4.3 mph 65 % 0.0 in
00:22 -2.6 °F -8.3 °F 1009.0 in NNW 2.1 mph 4.3 mph 65 % 0.0 in
00:27 -2.6 °F -8.1 °F 1009.0 in SSW 1.3 mph 4.0 mph 66 % 0.0 in
00:32 -2.7 °F -8.2 °F 1009.0 in SW 1.1 mph 3.5 mph 66 % 0.0 in
00:37 -2.7 °F -8.2 °F 1009.0 in SW 0.6 mph 3.2 mph 66 % 0.3 in
00:42 -2.8 °F -8.1 °F 1009.0 in SSW 1.9 mph 5.5 mph 67 % 0.3 in
00:47 -2.8 °F -8.1 °F 1009.0 in SW 2.4 mph 5.5 mph 67 % 0.3 in
00:52 -2.8 °F -8.1 °F 1009.0 in NW 1.6 mph 4.7 mph 67 % 0.3 in
00:57 -2.9 °F -8.0 °F 1009.0 in NW 1.3 mph 4.0 mph 68 % 0.3 in
01:02 -2.9 °F -8.0 °F 1009.0 in West 1.0 mph 4.0 mph 68 % 0.3 in
01:07 -2.9 °F -8.0 °F 1009.0 in WSW 1.0 mph 4.0 mph 68 % 0.3 in
01:12 -3.0 °F -7.9 °F 1009.0 in WSW 0.6 mph 3.2 mph 69 % 0.3 in
01:17 -3.1 °F -8.0 °F 1009.0 in WSW 0.6 mph 4.0 mph 69 % 0.3 in
01:22 -3.1 °F -8.0 °F 1009.0 in WSW 0.8 mph 5.5 mph 69 % 0.3 in
01:27 -3.1 °F -7.8 °F 1010.0 in SW 2.1 mph 5.5 mph 70 % 0.3 in
01:32 -3.1 °F -7.8 °F 1010.0 in WSW 2.6 mph 4.7 mph 70 % 0.3 in
01:37 -3.2 °F -7.9 °F 1010.0 in WNW 1.9 mph 4.7 mph 70 % 0.0 in
01:42 -3.3 °F -8.0 °F 1010.0 in WNW 2.7 mph 4.0 mph 70 % 0.0 in
01:47 -3.3 °F -7.8 °F 1010.0 in WNW 2.4 mph 4.0 mph 71 % 0.0 in
01:52 -3.2 °F -7.7 °F 1010.0 in West 1.9 mph 4.3 mph 71 % 0.0 in
01:57 -3.3 °F -7.8 °F 1010.0 in NW 1.3 mph 4.3 mph 71 % 0.0 in
02:02 -3.3 °F -7.8 °F 1010.0 in NE 0.3 mph 3.5 mph 71 % 0.0 in
02:07 -3.3 °F -7.6 °F 1010.0 in SW 0.3 mph 3.5 mph 72 % 0.0 in
02:12 -3.4 °F -7.7 °F 1010.0 in WSW 1.6 mph 4.7 mph 72 % 0.0 in
02:17 -3.4 °F -7.7 °F 1010.0 in WSW 2.7 mph 4.7 mph 72 % 0.0 in
02:22 -3.5 °F -7.8 °F 1010.0 in SW 2.3 mph 4.7 mph 72 % 0.0 in
02:27 -3.5 °F -7.8 °F 1010.0 in WNW 1.3 mph 4.3 mph 72 % 0.0 in
02:32 -3.5 °F -7.8 °F 1010.0 in WNW 2.4 mph 5.5 mph 72 % 0.0 in
02:37 -3.6 °F -7.7 °F 1010.0 in WNW 2.6 mph 5.5 mph 73 % 0.0 in
02:42 -3.6 °F -7.7 °F 1011.1 in West 0.6 mph 3.5 mph 73 % 0.0 in
02:47 -3.7 °F -7.8 °F 1011.1 in Calm     73 % 0.0 in
02:52 -3.7 °F -7.8 °F 1011.1 in SW 0.3 mph 4.0 mph 73 % 0.0 in
02:57 -3.7 °F -7.8 °F 1011.1 in West 0.8 mph 4.0 mph 73 % 0.0 in
03:02 -3.8 °F -7.9 °F 1011.1 in NW 1.1 mph 4.0 mph 73 % 0.0 in
03:07 -3.8 °F -7.8 °F 1011.1 in NNW 0.6 mph 4.0 mph 74 % 0.0 in
03:12 -3.8 °F -7.8 °F 1011.1 in Calm   3.2 mph 74 % 0.0 in
03:17 -3.9 °F -7.8 °F 1011.1 in NW 0.5 mph 3.2 mph 74 % 0.0 in
03:22 -3.9 °F -7.8 °F 1011.1 in NW 0.6 mph 2.6 mph 74 % 0.0 in
03:27 -3.9 °F -7.8 °F 1012.1 in NW 0.2 mph 2.1 mph 74 % 0.0 in
03:32 -4.0 °F -7.8 °F 1012.1 in SW 1.1 mph 4.0 mph 75 % 0.0 in
03:37 -4.0 °F -7.8 °F 1012.1 in WSW 2.3 mph 4.0 mph 75 % 0.0 in
03:42 -4.0 °F -7.8 °F 1011.1 in NW 2.9 mph 4.7 mph 75 % 0.0 in
03:47 -4.0 °F -7.8 °F 1011.1 in NNW 2.4 mph 4.7 mph 75 % 0.0 in
03:52 -4.1 °F -7.9 °F 1011.1 in NW 1.8 mph 3.2 mph 75 % 0.0 in
03:57 -4.1 °F -7.9 °F 1010.0 in NW 1.3 mph 4.0 mph 75 % 0.0 in
04:02 -4.1 °F -7.7 °F 1010.0 in WNW 0.5 mph 4.0 mph 76 % 0.0 in
04:07 -4.2 °F -7.8 °F 1010.0 in SSE 0.2 mph 2.1 mph 76 % 0.0 in
04:12 -4.2 °F -7.8 °F 1011.1 in SSE 0.2 mph 2.1 mph 76 % 0.0 in
04:17 -4.2 °F -7.8 °F 1011.1 in Calm   4.0 mph 76 % 0.0 in
04:22 -4.3 °F -7.9 °F 1011.1 in NNW 0.6 mph 4.0 mph 76 % 0.0 in
04:27 -4.3 °F -7.9 °F 1011.1 in NW 1.0 mph 2.6 mph 76 % 0.0 in
04:32 -4.4 °F -8.0 °F 1011.1 in NW 1.3 mph 4.0 mph 76 % 0.0 in
04:37 -4.4 °F -8.0 °F 1011.1 in West 2.1 mph 5.0 mph 76 % 0.0 in
04:42 -4.5 °F -8.1 °F 1011.1 in West 2.7 mph 5.8 mph 76 % 0.0 in
04:47 -4.5 °F -7.9 °F 1011.1 in West 2.4 mph 5.8 mph 77 % 0.0 in
04:52 -4.5 °F -7.9 °F 1011.1 in WNW 1.8 mph 4.7 mph 77 % 0.0 in
04:57 -4.5 °F -7.9 °F 1010.0 in WNW 1.6 mph 4.7 mph 77 % 0.0 in
05:03 -4.5 °F -7.9 °F 1010.0 in WNW 1.4 mph 4.3 mph 77 % 0.0 in
05:08 -4.5 °F -7.9 °F 1010.0 in WSW 1.0 mph 3.5 mph 77 % 0.0 in
05:13 -4.5 °F -7.9 °F 1011.1 in WNW 0.3 mph 2.1 mph 77 % 0.0 in
05:18 -4.6 °F -8.0 °F 1011.1 in NW 0.8 mph 5.5 mph 77 % 0.0 in
05:23 -4.6 °F -8.0 °F 1011.1 in NNW 1.6 mph 5.5 mph 77 % 0.0 in
05:28 -4.6 °F -7.8 °F 1011.1 in North 1.0 mph 5.5 mph 78 % 0.0 in
05:33 -4.7 °F -7.9 °F 1011.1 in Calm   2.6 mph 78 % 0.0 in
05:38 -4.7 °F -7.9 °F 1011.1 in Calm   2.6 mph 78 % 0.0 in
05:43 -4.7 °F -7.9 °F 1012.1 in NNW 0.5 mph 4.7 mph 78 % 0.0 in
05:48 -4.7 °F -7.9 °F 1012.1 in NNW 0.5 mph 4.7 mph 78 % 0.0 in
05:53 -4.7 °F -7.9 °F 1012.1 in Calm   3.2 mph 78 % 0.0 in
05:58 -4.8 °F -8.1 °F 1011.1 in SSE 0.3 mph 5.0 mph 78 % 0.0 in
06:03 -4.7 °F -7.9 °F 1011.1 in SSW 2.3 mph 5.0 mph 78 % 0.0 in
06:08 -4.7 °F -7.9 °F 1011.1 in SW 2.6 mph 4.7 mph 78 % 0.0 in
06:14 -4.8 °F -7.9 °F 1011.1 in NW 1.4 mph 4.0 mph 79 % 0.0 in
06:19 -4.8 °F -7.9 °F 1011.1 in NW 1.9 mph 4.7 mph 79 % 0.0 in
06:24 -4.8 °F -7.9 °F 1011.1 in NW 1.9 mph 4.7 mph 79 % 0.0 in
06:29 -4.8 °F -7.9 °F 1011.1 in WNW 1.4 mph 4.7 mph 79 % 0.0 in
06:34 -4.8 °F -7.9 °F 1011.1 in WNW 0.6 mph 4.7 mph 79 % 0.0 in
06:39 -4.8 °F -7.9 °F 1011.1 in NW 0.2 mph 2.1 mph 79 % 0.0 in
06:44 -4.8 °F -7.9 °F 1011.1 in West 1.1 mph 3.5 mph 79 % 0.0 in
06:49 -4.8 °F -7.9 °F 1011.1 in West 1.1 mph 3.5 mph 79 % 0.0 in
06:54 -4.8 °F -7.9 °F 1011.1 in North 0.2 mph   79 % 0.0 in
06:59 -4.8 °F -7.9 °F 1011.1 in NNW 1.0 mph 3.5 mph 79 % 0.0 in
07:04 -4.8 °F -7.7 °F 1011.1 in NNW 1.0 mph 3.5 mph 80 % 0.0 in
07:09 -4.9 °F -7.8 °F 1011.1 in WNW 0.2 mph 2.6 mph 80 % 0.0 in
07:14 -4.9 °F -7.8 °F 1012.1 in SSW 0.5 mph 3.2 mph 80 % 0.0 in
07:19 -4.9 °F -7.8 °F 1012.1 in SSE 0.5 mph 3.2 mph 80 % 0.0 in
07:24 -4.9 °F -7.8 °F 1012.1 in SSE 0.5 mph 2.6 mph 80 % 0.0 in
07:29 -4.9 °F -7.8 °F 1011.1 in Calm     80 % 0.0 in
07:34 -5.0 °F -7.9 °F 1011.1 in Calm     80 % 0.0 in
07:39 -4.9 °F -7.8 °F 1011.1 in Calm     80 % 0.0 in
07:44 -5.0 °F -7.8 °F 1012.1 in Calm     81 % 0.0 in
07:49 -5.0 °F -7.8 °F 1012.1 in Calm     81 % 0.0 in
07:54 -5.0 °F -7.8 °F 1012.1 in Calm     81 % 0.0 in
07:59 -5.0 °F -7.8 °F 1012.1 in Calm     81 % 0.0 in
08:04 -5.0 °F -7.8 °F 1012.1 in Calm     81 % 0.0 in
08:09 -4.9 °F -7.7 °F 1012.1 in Calm     81 % 0.0 in
08:14 -4.9 °F -7.7 °F 1013.1 in Calm     81 % 0.0 in
08:19 -4.9 °F -7.7 °F 1013.1 in Calm     81 % 0.0 in
08:24 -4.9 °F -7.7 °F 1013.1 in Calm     81 % 0.0 in
08:29 -4.9 °F -7.7 °F 1013.1 in Calm     81 % 0.0 in
08:34 -4.9 °F -7.7 °F 1013.1 in Calm     81 % 0.0 in
08:39 -4.7 °F -7.4 °F 1013.1 in Calm     81 % 0.0 in
08:44 -4.6 °F -7.4 °F 1013.1 in Calm     81 % 0.0 in
08:49 -4.5 °F -7.1 °F 1013.1 in Calm     82 % 0.0 in
08:54 -4.3 °F -6.9 °F 1013.1 in Calm     82 % 0.0 in
08:59 -4.2 °F -6.8 °F 1013.1 in South 0.3 mph 3.2 mph 82 % 0.0 in
09:04 -3.9 °F -6.5 °F 1013.1 in SSW 1.4 mph 4.0 mph 82 % 0.0 in
09:09 -3.7 °F -6.3 °F 1013.1 in SSW 2.6 mph 5.0 mph 82 % 0.0 in
09:14 -3.5 °F -5.9 °F 1013.1 in SW 2.6 mph 5.0 mph 83 % 0.0 in
09:19 -3.3 °F -5.8 °F 1013.1 in SW 1.3 mph 4.0 mph 83 % 0.0 in
09:24 -3.1 °F -5.6 °F 1013.1 in SSE 0.2 mph 2.6 mph 83 % 0.0 in
09:29 -2.9 °F -5.4 °F 1013.1 in SE 0.3 mph 3.5 mph 83 % 0.0 in
09:34 -2.7 °F -5.1 °F 1013.1 in SSE 1.3 mph 4.0 mph 84 % 0.0 in
09:39 -2.5 °F -4.8 °F 1013.1 in SSE 1.0 mph 4.0 mph 84 % 0.0 in
09:44 -2.4 °F -4.7 °F 1013.1 in Calm     84 % 0.0 in
09:49 -2.1 °F -4.4 °F 1013.1 in SW 0.2 mph 2.1 mph 84 % 0.0 in
09:54 -1.9 °F -4.2 °F 1013.1 in SW 0.2 mph 2.1 mph 84 % 0.0 in
09:59 -1.8 °F -4.2 °F 1013.1 in SSE 0.5 mph 3.2 mph 84 % 0.0 in
10:04 -1.5 °F -3.7 °F 1013.1 in SSE 0.5 mph 3.2 mph 85 % 0.0 in
10:09 -1.2 °F -3.4 °F 1013.1 in SE 1.1 mph 4.3 mph 85 % 0.0 in
10:14 -0.9 °F -3.1 °F 1013.1 in SE 1.1 mph 4.3 mph 85 % 0.0 in
10:19 -0.4 °F -2.6 °F 1013.1 in SSE 0.5 mph 3.2 mph 85 % 0.0 in
10:24 0.1 °F -1.9 °F 1013.1 in SSW 1.4 mph 4.3 mph 86 % 0.0 in
10:29 0.5 °F -1.6 °F 1013.1 in SSW 2.7 mph 4.7 mph 86 % 0.0 in
10:34 0.8 °F -1.3 °F 1013.1 in South 3.1 mph 5.0 mph 86 % 0.0 in
10:39 1.1 °F -1.0 °F 1013.1 in SSE 2.4 mph 5.0 mph 86 % 0.0 in
10:44 1.3 °F -0.8 °F 1013.1 in SSE 1.1 mph 2.6 mph 86 % 0.0 in
10:49 1.5 °F -0.6 °F 1013.1 in South 0.3 mph 2.6 mph 86 % 0.0 in
10:54 1.7 °F -0.4 °F 1013.1 in Calm     86 % 0.0 in
10:59 1.9 °F -0.2 °F 1013.1 in South 0.5 mph 3.5 mph 86 % 0.0 in
11:04 2.1 °F 0.0 °F 1013.1 in South 0.8 mph 3.5 mph 86 % 0.0 in
11:09 2.2 °F 0.1 °F 1013.1 in South 0.2 mph 2.1 mph 86 % 0.0 in
11:14 2.4 °F 0.3 °F 1012.1 in Calm   2.1 mph 86 % 0.0 in
11:19 2.6 °F 0.5 °F 1012.1 in East 0.8 mph 4.0 mph 86 % 0.0 in
11:24 2.8 °F 0.7 °F 1012.1 in East 2.4 mph 5.5 mph 86 % 0.0 in
11:29 3.3 °F 1.0 °F 1011.1 in ESE 3.9 mph 5.8 mph 85 % 0.0 in
11:34 3.7 °F 1.4 °F 1011.1 in SE 4.5 mph 6.9 mph 85 % 0.0 in
11:39 4.2 °F 1.9 °F 1011.1 in SE 4.3 mph 6.9 mph 85 % 0.0 in
11:44 4.6 °F 2.3 °F 1011.1 in SE 4.0 mph 5.8 mph 85 % 0.0 in
11:49 5.2 °F 2.7 °F 1011.1 in SE 4.2 mph 6.1 mph 84 % 0.0 in
11:54 5.5 °F 3.0 °F 1011.1 in SSE 4.8 mph 7.6 mph 84 % 0.0 in
11:59 5.8 °F 3.1 °F 1011.1 in SSE 6.3 mph 9.7 mph 83 % 0.0 in
12:04 6.0 °F 3.2 °F 1011.1 in SSE 6.8 mph 9.7 mph 82 % 0.0 in
12:09 6.3 °F 3.4 °F 1011.1 in SSE 6.3 mph 9.3 mph 82 % 0.0 in
12:14 6.5 °F 3.5 °F 1011.1 in SSE 5.8 mph 9.0 mph 81 % 0.0 in
12:19 6.7 °F 3.5 °F 1011.1 in SSE 6.6 mph 13.0 mph 80 % 0.0 in
12:24 7.1 °F 3.3 °F 1011.1 in South 7.7 mph 15.4 mph 77 % 0.0 in
12:29 7.4 °F 3.4 °F 1010.0 in South 8.8 mph 15.4 mph 76 % 0.0 in
12:34 7.7 °F 3.3 °F 1010.0 in SSW 8.7 mph 15.4 mph 74 % 0.0 in
12:39 7.9 °F 3.2 °F 1010.0 in SSW 8.0 mph 11.9 mph 72 % 0.0 in
12:44 8.1 °F 2.9 °F 1009.0 in SSW 7.7 mph 12.2 mph 70 % 0.0 in
12:49 8.3 °F 2.5 °F 1009.0 in SSW 6.9 mph 12.2 mph 67 % 0.0 in
12:54 8.4 °F 2.2 °F 1009.0 in SSW 6.4 mph 9.3 mph 65 % 0.0 in
12:59 8.3 °F 1.7 °F 1009.0 in South 7.1 mph 10.5 mph 63 % 0.0 in
13:04 8.2 °F 0.9 °F 1009.0 in South 6.1 mph 10.5 mph 60 % 0.0 in
13:09 8.3 °F 0.7 °F 1009.0 in SW 5.6 mph 13.7 mph 59 % 0.0 in
13:14 8.4 °F 0.4 °F 1008.0 in SW 6.0 mph 13.7 mph 57 % 0.0 in
13:19 8.5 °F -0.1 °F 1008.0 in SW 6.0 mph 10.5 mph 55 % 0.0 in
13:24 8.5 °F -0.6 °F 1008.0 in SSW 5.8 mph 10.5 mph 53 % 0.0 in
13:29 8.5 °F -0.8 °F 1009.0 in South 5.6 mph 10.5 mph 52 % 0.0 in
13:34 8.4 °F -1.2 °F 1009.0 in SE 5.6 mph 10.5 mph 51 % 0.0 in
13:39 8.3 °F -1.6 °F 1009.0 in SSE 3.9 mph 6.9 mph 50 % 0.0 in
13:44 8.4 °F -1.7 °F 1009.0 in SSW 3.7 mph 10.1 mph 49 % 0.0 in
13:49 8.5 °F -1.9 °F 1009.0 in SSW 6.0 mph 14.0 mph 48 % 0.0 in
13:54 8.7 °F -2.0 °F 1009.0 in SW 6.0 mph 14.0 mph 47 % 0.0 in
13:59 8.7 °F -2.3 °F 1008.0 in West 4.2 mph 8.7 mph 46 % 0.0 in
14:04 8.9 °F -2.7 °F 1008.0 in WSW 4.2 mph 9.0 mph 44 % 0.0 in
14:09 9.1 °F -2.8 °F 1008.0 in WSW 4.3 mph 9.0 mph 43 % 0.0 in
14:14 9.3 °F -3.0 °F 1008.0 in West 4.7 mph 9.0 mph 42 % 0.0 in
14:19 9.4 °F -3.6 °F 1008.0 in West 6.0 mph 13.0 mph 40 % 0.0 in
14:24 9.6 °F -3.3 °F 1008.0 in West 6.3 mph 13.0 mph 40 % 0.0 in
14:29 9.6 °F -3.7 °F 1008.0 in West 5.3 mph 12.6 mph 39 % 0.0 in
14:34 9.7 °F -3.9 °F 1008.0 in WSW 5.6 mph 14.0 mph 38 % 0.0 in
14:39 9.6 °F -4.4 °F 1008.0 in WSW 6.9 mph 16.9 mph 37 % 0.0 in
14:44 9.8 °F -4.6 °F 1008.0 in West 6.9 mph 16.9 mph 36 % 0.0 in
14:49 9.9 °F -5.3 °F 1008.0 in West 6.6 mph 13.0 mph 34 % 0.0 in
14:54 9.9 °F -5.7 °F 1008.0 in West 6.4 mph 13.0 mph 33 % 0.0 in
14:59 10.0 °F -6.4 °F 1007.0 in WSW 6.6 mph 13.0 mph 31 % 0.0 in
15:04 10.0 °F -6.8 °F 1007.0 in WSW 6.4 mph 13.0 mph 30 % 0.0 in
15:09 9.9 °F -7.3 °F 1007.0 in West 6.3 mph 12.2 mph 29 % 0.0 in
15:14 9.8 °F -7.9 °F 1007.0 in WNW 6.6 mph 20.6 mph 28 % 0.0 in
15:19 9.7 °F -8.9 °F 1007.0 in West 7.2 mph 20.6 mph 26 % 0.0 in
15:24 9.6 °F -12.9 °F 1007.0 in West 7.6 mph 14.0 mph 19 % 0.0 in
15:29 9.5 °F -16.7 °F 1008.0 in WSW 7.4 mph 14.0 mph 14 % 0.0 in
15:34 9.3 °F -19.8 °F 1008.0 in WSW 6.8 mph 14.0 mph 11 % 0.0 in
15:39 9.3 °F -23.4 °F 1008.0 in West 7.1 mph 14.3 mph 8 % 0.0 in
15:44 9.1 °F -23.6 °F 1007.0 in WSW 7.9 mph 14.3 mph 8 % 0.0 in
15:49 8.9 °F -23.7 °F 1007.0 in SW 6.8 mph 12.2 mph 8 % 0.0 in
15:54 8.8 °F -23.8 °F 1007.0 in SW 5.5 mph 12.2 mph 8 % 0.0 in
15:59 8.7 °F -23.8 °F 1007.0 in SW 5.1 mph 12.2 mph 8 % 0.0 in
16:04 8.4 °F -24.1 °F 1007.0 in SW 4.5 mph 9.7 mph 8 % 0.0 in
16:09 8.5 °F -24.0 °F 1007.0 in WSW 6.8 mph 25.6 mph 8 % 0.0 in
16:14 8.3 °F -24.2 °F 1007.0 in WSW 6.6 mph 25.6 mph 8 % 0.0 in
16:19 8.1 °F -23.0 °F 1007.0 in WSW 3.4 mph 10.1 mph 9 % 0.0 in
16:24 7.9 °F -19.8 °F 1007.0 in SSW 4.3 mph 10.5 mph 12 % 0.0 in
16:29 8.0 °F -19.8 °F 1007.0 in WSW 6.1 mph 10.5 mph 12 % 0.0 in
16:34 8.1 °F -19.7 °F 1007.0 in NW 5.5 mph 12.2 mph 12 % 0.0 in
16:39 8.1 °F -19.7 °F 1007.0 in SSW 6.1 mph 15.4 mph 12 % 0.0 in
16:44 8.0 °F -17.9 °F 1007.0 in SW 6.4 mph 15.4 mph 14 % 0.0 in
16:49 8.1 °F -17.9 °F 1007.0 in WSW 5.5 mph 17.2 mph 14 % 0.0 in
16:54 8.0 °F -17.9 °F 1007.0 in WSW 5.3 mph 17.2 mph 14 % 0.0 in
16:59 7.9 °F -15.7 °F 1007.0 in SW 4.5 mph 10.1 mph 17 % 0.0 in
17:04 7.7 °F -15.9 °F 1007.0 in SW 3.4 mph 10.1 mph 17 % 0.0 in
17:09 7.5 °F -14.1 °F 1007.0 in WSW 3.4 mph 10.1 mph 20 % 0.0 in
17:14 7.4 °F -14.2 °F 1006.0 in West 4.0 mph 11.9 mph 20 % 0.0 in
17:19 7.4 °F -13.0 °F 1006.0 in WSW 4.5 mph 13.0 mph 22 % 0.0 in
17:24 7.5 °F -14.1 °F 1006.0 in WSW 6.3 mph 13.0 mph 20 % 0.0 in
17:29 7.7 °F -15.9 °F 1007.0 in WSW 6.4 mph 12.6 mph 17 % 0.0 in
17:34 7.8 °F -15.8 °F 1007.0 in WSW 6.4 mph 11.1 mph 17 % 0.0 in
17:39 7.7 °F -15.9 °F 1007.0 in SW 5.3 mph 11.1 mph 17 % 0.0 in
17:44 7.5 °F -17.6 °F 1007.0 in SW 4.2 mph 10.5 mph 15 % 0.0 in
17:49 7.5 °F -16.1 °F 1007.0 in SW 4.3 mph 10.5 mph 17 % 0.0 in
17:54 7.4 °F -16.1 °F 1007.0 in West 5.1 mph 10.5 mph 17 % 0.0 in
17:59 7.4 °F -16.1 °F 1007.0 in West 5.8 mph 12.2 mph 17 % 0.0 in
18:04 7.2 °F -14.3 °F 1007.0 in West 4.3 mph 12.2 mph 20 % 0.0 in
18:09 7.1 °F -14.4 °F 1007.0 in West 3.9 mph 7.6 mph 20 % 0.0 in
18:14 6.9 °F -12.8 °F 1007.0 in West 4.5 mph 7.6 mph 23 % 0.0 in
18:19 6.6 °F -12.1 °F 1007.0 in West 3.4 mph 6.9 mph 25 % 0.0 in
18:24 6.5 °F -10.7 °F 1007.0 in WSW 2.4 mph 5.5 mph 28 % 0.0 in
18:29 6.4 °F -10.8 °F 1007.0 in WSW 3.1 mph 9.7 mph 28 % 0.0 in
18:34 6.5 °F -10.7 °F 1007.0 in WSW 3.7 mph 9.7 mph 28 % 0.0 in
18:39 6.3 °F -10.4 °F 1007.0 in WSW 2.7 mph 13.0 mph 29 % 0.0 in
18:44 6.1 °F -10.7 °F 1008.0 in West 3.2 mph 13.0 mph 29 % 0.0 in
18:49 5.8 °F -10.9 °F 1008.0 in West 4.0 mph 9.3 mph 29 % 0.0 in
18:54 5.4 °F -10.8 °F 1008.0 in West 3.5 mph 9.0 mph 30 % 0.0 in
18:59 4.8 °F -10.9 °F 1007.0 in WNW 3.5 mph 9.0 mph 31 % 0.0 in
19:04 4.2 °F -10.7 °F 1007.0 in NW 2.7 mph 5.5 mph 33 % 0.0 in
19:09 3.8 °F -10.7 °F 1007.0 in NW 1.8 mph 5.5 mph 34 % 0.0 in
19:14 3.4 °F -10.3 °F 1007.0 in NW 1.6 mph 5.5 mph 36 % 0.0 in
19:19 3.0 °F -9.9 °F 1007.0 in NNW 1.9 mph 4.7 mph 38 % 0.0 in
19:24 2.7 °F -9.9 °F 1007.0 in NNW 2.9 mph 6.1 mph 39 % 0.0 in
19:29 2.4 °F -9.8 °F 1007.0 in NNW 2.9 mph 6.1 mph 40 % 0.0 in
19:34 2.1 °F -10.1 °F 1007.0 in NW 1.9 mph 4.7 mph 40 % 0.0 in
19:39 1.9 °F -10.0 °F 1007.0 in NW 1.3 mph 4.3 mph 41 % 0.0 in
19:44 1.7 °F -9.9 °F 1008.0 in NW 1.9 mph 5.5 mph 42 % 0.0 in
19:49 1.7 °F -9.9 °F 1008.0 in NW 2.3 mph 5.5 mph 42 % 0.0 in
19:54 1.4 °F -9.8 °F 1008.0 in West 0.8 mph 4.3 mph 43 % 0.0 in
19:59 1.1 °F -9.8 °F 1007.0 in WNW 1.1 mph 4.3 mph 44 % 0.0 in
20:04 1.0 °F -9.9 °F 1007.0 in WNW 2.1 mph 4.3 mph 44 % 0.0 in
20:09 0.9 °F -9.7 °F 1007.0 in WNW 1.1 mph 4.3 mph 45 % 0.0 in
20:14 0.7 °F -9.6 °F 1007.0 in Calm     46 % 0.0 in
20:19 0.6 °F -9.4 °F 1007.0 in WNW 0.8 mph 4.3 mph 47 % 0.0 in
20:24 0.4 °F -9.3 °F 1007.0 in WNW 0.8 mph 4.3 mph 48 % 0.0 in
20:29 0.3 °F -9.2 °F 1007.0 in NW 0.5 mph 4.3 mph 49 % 0.0 in
20:34 0.3 °F -9.2 °F 1007.0 in NW 0.6 mph 4.3 mph 49 % 0.0 in
20:39 0.1 °F -9.1 °F 1007.0 in NW 0.2 mph 2.6 mph 50 % 0.0 in
20:44 0.0 °F -8.9 °F 1007.0 in Calm     51 % 0.0 in
20:49 -0.1 °F -9.1 °F 1007.0 in Calm     51 % 0.0 in
20:54 -0.2 °F -9.1 °F 1007.0 in Calm     51 % 0.0 in
20:59 -0.2 °F -8.9 °F 1007.0 in WNW 0.6 mph 4.3 mph 52 % 0.0 in
21:04 -0.3 °F -9.0 °F 1007.0 in WNW 1.1 mph 4.3 mph 52 % 0.0 in
21:09 -0.2 °F -8.7 °F 1007.0 in NW 1.4 mph 4.3 mph 53 % 0.0 in
21:14 -0.2 °F -8.7 °F 1006.0 in NW 1.9 mph 5.0 mph 53 % 0.0 in
21:19 -0.1 °F -8.3 °F 1006.0 in NW 1.8 mph 5.0 mph 54 % 0.0 in
21:24 -0.1 °F -8.3 °F 1006.0 in NNW 1.3 mph 5.0 mph 54 % 0.0 in
21:29 -0.1 °F -8.1 °F 1006.0 in NW 2.1 mph 6.9 mph 55 % 0.0 in
21:34 0.1 °F -7.7 °F 1006.0 in NNW 2.1 mph 6.9 mph 56 % 0.0 in
21:39 0.0 °F -7.7 °F 1006.0 in North 1.1 mph 5.0 mph 56 % 0.0 in
21:44 0.1 °F -7.4 °F 1006.0 in North 1.4 mph 5.0 mph 57 % 0.0 in
21:49 0.1 °F -7.4 °F 1006.0 in NNW 1.1 mph 4.7 mph 57 % 0.0 in
21:54 0.1 °F -7.2 °F 1006.0 in NW 1.1 mph 6.9 mph 58 % 0.0 in
21:59 0.3 °F -7.0 °F 1006.0 in NW 2.1 mph 6.9 mph 58 % 0.0 in
22:04 0.6 °F -6.5 °F 1006.0 in WNW 2.9 mph 6.1 mph 59 % 0.0 in
22:09 1.1 °F -5.8 °F 1006.0 in WNW 3.4 mph 6.1 mph 60 % 0.0 in
22:14 2.0 °F -4.7 °F 1006.0 in WSW 3.9 mph 6.9 mph 61 % 0.0 in
22:19 2.7 °F -3.7 °F 1006.0 in SSW 3.2 mph 6.9 mph 63 % 0.0 in
22:24 3.2 °F -2.9 °F 1006.0 in SW 3.9 mph 11.9 mph 64 % 0.0 in
22:29 3.6 °F -2.6 °F 1006.0 in SW 6.3 mph 12.2 mph 64 % 0.0 in
22:34 4.3 °F -1.7 °F 1006.0 in SW 6.4 mph 12.2 mph 65 % 0.0 in
22:39 4.7 °F -1.1 °F 1006.0 in WSW 6.0 mph 12.2 mph 66 % 0.0 in
22:44 5.0 °F -0.8 °F 1005.0 in SW 5.8 mph 12.2 mph 66 % 0.0 in
22:49 5.4 °F -0.4 °F 1005.0 in SW 5.6 mph 10.5 mph 66 % 0.0 in
22:54 5.6 °F -0.3 °F 1005.0 in SW 5.3 mph 9.7 mph 66 % 0.0 in
22:59 5.8 °F -0.1 °F 1005.0 in SW 6.0 mph 19.1 mph 66 % 0.0 in
23:04 6.3 °F 0.2 °F 1005.0 in SW 5.8 mph 19.1 mph 65 % 0.0 in
23:09 6.3 °F 0.2 °F 1005.0 in SW 4.8 mph 10.5 mph 65 % 0.0 in
23:14 6.5 °F 0.2 °F 1005.0 in WSW 6.3 mph 16.3 mph 64 % 0.0 in
23:19 6.6 °F 0.3 °F 1005.0 in WSW 6.3 mph 16.3 mph 64 % 0.0 in
23:24 6.7 °F 0.4 °F 1005.0 in SW 6.0 mph 18.0 mph 64 % 0.0 in
23:29 7.0 °F 0.4 °F 1005.0 in WSW 7.4 mph 18.0 mph 63 % 0.0 in
23:34 7.1 °F 0.5 °F 1005.0 in WSW 7.6 mph 16.3 mph 63 % 0.0 in
23:39 7.1 °F 0.3 °F 1005.0 in SW 7.4 mph 16.6 mph 62 % 0.0 in
23:44 7.1 °F 0.3 °F 1003.9 in SW 6.4 mph 16.6 mph 62 % 0.0 in
23:49 7.0 °F 0.2 °F 1003.9 in SW 5.6 mph 12.2 mph 62 % 0.0 in
23:54 7.0 °F 0.0 °F 1003.9 in SW 5.6 mph 15.1 mph 61 % 0.0 in
23:59 7.0 °F 0.0 °F 1003.9 in SW 6.4 mph 15.1 mph 61 % 0.0 in
Vremenska postaja Senovo
Podatki zbrani iz Weather Underground - 3 mb

Script developed by  Jim McMurry - jmcmurry@mwt.net Adapted for the template by  Wim van der Kuil - Leuven-Template.eu

Vremenski podatki so objavljeni na:

European Weather Network

WeatherCloud

Weather Underground

AWEKAS

HAMweather, WeatherForYou, PWS Weather

MapView

Geostik

Slovenia weather network

Oprema, ki se uporablja:

Vremenski program
Cumulus

Vremenski server
Asus

Cumulus

Asus